Time,TemperatureF,DewpointF,PressureIn,WindDirection,WindDirectionDegrees,WindSpeedMPH,WindSpeedGustMPH,Humidity,HourlyPrecipIn,Conditions,Clouds,dailyrainin,SoftwareType,DateUTC
2013-04-26 00:03:00,38.8,38.5,30.25,SSW,202,2.7,-999.0,99,-99.99,,,0.00,Acu-Link.com,2013-04-26 04:03:00,
2013-04-26 00:19:00,38.7,38.4,30.26,SSW,202,3.2,-999.0,99,-99.99,,,0.00,Acu-Link.com,2013-04-26 04:19:00,
2013-04-26 00:34:00,38.5,38.2,30.26,SSW,202,3.2,-999.0,99,-99.99,,,0.00,Acu-Link.com,2013-04-26 04:34:00,
2013-04-26 00:49:00,38.3,38.0,30.26,SW,225,2.2,-999.0,99,-99.99,,,0.00,Acu-Link.com,2013-04-26 04:49:00,
2013-04-26 01:04:00,38.8,38.5,30.26,SW,225,2.2,-999.0,99,-99.99,,,0.00,Acu-Link.com,2013-04-26 05:04:00,
2013-04-26 01:20:00,39.0,38.7,30.27,WNW,292,2.2,-999.0,99,-99.99,,,0.00,Acu-Link.com,2013-04-26 05:20:00,
2013-04-26 01:35:00,39.2,38.9,30.27,SW,225,1.7,-999.0,99,-99.99,,,0.00,Acu-Link.com,2013-04-26 05:35:00,
2013-04-26 01:50:00,38.7,38.4,30.28,SW,225,1.7,-999.0,99,-99.99,,,0.00,Acu-Link.com,2013-04-26 05:50:00,
2013-04-26 02:06:00,38.1,37.8,30.27,SW,225,0.0,-999.0,99,-99.99,,,0.00,Acu-Link.com,2013-04-26 06:06:00,
2013-04-26 02:21:00,37.8,37.5,30.28,SW,225,1.1,-999.0,99,-99.99,,,0.01,Acu-Link.com,2013-04-26 06:21:00,
2013-04-26 02:36:00,37.8,37.5,30.29,WNW,292,1.7,-999.0,99,-99.99,,,0.01,Acu-Link.com,2013-04-26 06:36:00,
2013-04-26 02:51:00,37.8,37.5,30.29,SSW,202,1.7,-999.0,99,-99.99,,,0.01,Acu-Link.com,2013-04-26 06:51:00,
2013-04-26 03:06:00,37.4,37.1,30.29,WSW,247,2.2,-999.0,99,-99.99,,,0.01,Acu-Link.com,2013-04-26 07:06:00,
2013-04-26 03:22:00,36.9,36.6,30.29,SSW,202,0.0,-999.0,99,-99.99,,,0.01,Acu-Link.com,2013-04-26 07:22:00,
2013-04-26 03:37:00,36.5,36.2,30.29,SSW,202,2.2,-999.0,99,-99.99,,,0.01,Acu-Link.com,2013-04-26 07:37:00,
2013-04-26 03:52:00,36.3,36.0,30.30,SSW,202,1.7,-999.0,99,-99.99,,,0.01,Acu-Link.com,2013-04-26 07:52:00,
2013-04-26 04:08:00,35.8,35.5,30.30,WSW,247,0.0,-999.0,99,-99.99,,,0.01,Acu-Link.com,2013-04-26 08:08:00,
2013-04-26 04:23:00,35.2,34.9,30.31,WSW,247,0.0,-999.0,99,-99.99,,,0.01,Acu-Link.com,2013-04-26 08:23:00,
2013-04-26 04:38:00,35.1,34.8,30.32,WSW,247,0.0,-999.0,99,-99.99,,,0.01,Acu-Link.com,2013-04-26 08:38:00,
2013-04-26 04:53:00,34.9,34.6,30.32,WSW,247,0.0,-999.0,99,-99.99,,,0.01,Acu-Link.com,2013-04-26 08:53:00,
2013-04-26 05:08:00,34.5,34.2,30.33,WSW,247,0.0,-999.0,99,-99.99,,,0.01,Acu-Link.com,2013-04-26 09:08:00,
2013-04-26 05:24:00,34.3,34.0,30.34,WSW,247,0.0,-999.0,99,-99.99,,,0.01,Acu-Link.com,2013-04-26 09:24:00,
2013-04-26 05:39:00,34.2,33.9,30.34,SW,225,0.0,-999.0,99,-99.99,,,0.01,Acu-Link.com,2013-04-26 09:39:00,
2013-04-26 05:54:00,33.1,32.8,30.33,SW,225,0.0,-999.0,99,-99.99,,,0.01,Acu-Link.com,2013-04-26 09:54:00,
2013-04-26 06:09:00,32.5,32.3,30.34,SW,225,0.0,-999.0,99,-99.99,,,0.01,Acu-Link.com,2013-04-26 10:09:00,
2013-04-26 06:25:00,32.2,32.0,30.35,SW,225,0.0,-999.0,99,-99.99,,,0.01,Acu-Link.com,2013-04-26 10:25:00,
2013-04-26 06:40:00,32.2,32.0,30.35,SW,225,0.0,-999.0,99,-99.99,,,0.01,Acu-Link.com,2013-04-26 10:40:00,
2013-04-26 06:55:00,32.4,32.2,30.36,SW,225,0.0,-999.0,99,-99.99,,,0.01,Acu-Link.com,2013-04-26 10:55:00,
2013-04-26 07:11:00,34.0,33.7,30.36,SW,225,0.0,-999.0,99,-99.99,,,0.01,Acu-Link.com,2013-04-26 11:11:00,
2013-04-26 07:26:00,36.9,36.6,30.37,SW,225,0.0,-999.0,99,-99.99,,,0.01,Acu-Link.com,2013-04-26 11:26:00,
2013-04-26 07:41:00,39.9,39.6,30.37,South,180,0.0,-999.0,99,-99.99,,,0.01,Acu-Link.com,2013-04-26 11:41:00,
2013-04-26 07:57:00,42.1,41.3,30.38,SSW,202,1.7,-999.0,97,-99.99,,,0.01,Acu-Link.com,2013-04-26 11:57:00,
2013-04-26 08:12:00,44.6,42.1,30.38,West,270,1.7,-999.0,91,-99.99,,,0.01,Acu-Link.com,2013-04-26 12:12:00,
2013-04-26 08:27:00,44.4,39.3,30.38,WNW,292,2.7,-999.0,82,-99.99,,,0.01,Acu-Link.com,2013-04-26 12:27:00,
2013-04-26 08:42:00,45.3,37.5,30.39,NW,315,2.7,-999.0,74,-99.99,,,0.01,Acu-Link.com,2013-04-26 12:42:00,
2013-04-26 08:57:00,45.7,33.8,30.39,NNW,337,4.2,-999.0,63,-99.99,,,0.01,Acu-Link.com,2013-04-26 12:57:00,
2013-04-26 09:12:00,46.6,33.9,30.40,North,0,3.2,-999.0,61,-99.99,,,0.01,Acu-Link.com,2013-04-26 13:12:00,
2013-04-26 09:27:00,47.5,32.6,30.40,NNW,337,4.2,-999.0,56,-99.99,,,0.01,Acu-Link.com,2013-04-26 13:27:00,
2013-04-26 09:43:00,48.7,32.8,30.40,North,0,2.7,-999.0,54,-99.99,,,0.01,Acu-Link.com,2013-04-26 13:43:00,
2013-04-26 09:58:00,50.0,33.1,30.40,NNW,337,2.7,-999.0,52,-99.99,,,0.01,Acu-Link.com,2013-04-26 13:58:00,
2013-04-26 10:13:00,49.6,32.2,30.40,West,270,3.2,-999.0,51,-99.99,,,0.01,Acu-Link.com,2013-04-26 14:13:00,
2013-04-26 10:29:00,51.3,30.1,30.41,West,270,3.7,-999.0,44,-99.99,,,0.01,Acu-Link.com,2013-04-26 14:29:00,
2013-04-26 10:44:00,49.5,30.1,30.41,SW,225,3.7,-999.0,47,-99.99,,,0.01,Acu-Link.com,2013-04-26 14:44:00,
2013-04-26 10:59:00,51.8,29.4,30.41,NW,315,6.3,-999.0,42,-99.99,,,0.01,Acu-Link.com,2013-04-26 14:59:00,
2013-04-26 11:14:00,52.5,31.2,30.42,West,270,3.7,-999.0,44,-99.99,,,0.01,Acu-Link.com,2013-04-26 15:14:00,
2013-04-26 11:29:00,52.7,27.8,30.42,WSW,247,5.8,-999.0,38,-99.99,,,0.01,Acu-Link.com,2013-04-26 15:29:00,
2013-04-26 11:45:00,54.3,30.5,30.42,West,270,4.7,-999.0,40,-99.99,,,0.01,Acu-Link.com,2013-04-26 15:45:00,
2013-04-26 12:00:00,54.1,27.1,30.42,ENE,67,5.3,-999.0,35,-99.99,,,0.01,Acu-Link.com,2013-04-26 16:00:00,
2013-04-26 12:15:00,54.9,30.4,30.42,SW,225,6.8,-999.0,39,-99.99,,,0.01,Acu-Link.com,2013-04-26 16:15:00,
2013-04-26 12:31:00,53.6,27.3,30.42,WNW,292,4.2,-999.0,36,-99.99,,,0.01,Acu-Link.com,2013-04-26 16:31:00,
2013-04-26 12:46:00,55.4,29.6,30.41,WNW,292,6.3,-999.0,37,-99.99,,,0.01,Acu-Link.com,2013-04-26 16:46:00,
2013-04-26 13:01:00,54.5,28.8,30.41,WNW,292,5.8,-999.0,37,-99.99,,,0.01,Acu-Link.com,2013-04-26 17:01:00,
2013-04-26 13:16:00,53.6,34.4,30.41,SW,225,4.7,-999.0,48,-99.99,,,0.01,Acu-Link.com,2013-04-26 17:16:00,
2013-04-26 13:31:00,52.5,30.7,30.40,SSW,202,3.7,-999.0,43,-99.99,,,0.01,Acu-Link.com,2013-04-26 17:31:00,
2013-04-26 13:46:00,53.8,33.5,30.40,SW,225,4.7,-999.0,46,-99.99,,,0.01,Acu-Link.com,2013-04-26 17:46:00,
2013-04-26 14:01:00,51.4,32.9,30.40,SW,225,4.2,-999.0,49,-99.99,,,0.01,Acu-Link.com,2013-04-26 18:01:00,
2013-04-26 14:17:00,54.9,32.8,30.40,WSW,247,8.9,-999.0,43,-99.99,,,0.01,Acu-Link.com,2013-04-26 18:17:00,
2013-04-26 14:32:00,54.7,32.6,30.40,West,270,3.7,-999.0,43,-99.99,,,0.01,Acu-Link.com,2013-04-26 18:32:00,
2013-04-26 14:47:00,55.9,33.1,30.40,SW,225,9.9,-999.0,42,-99.99,,,0.01,Acu-Link.com,2013-04-26 18:47:00,
2013-04-26 15:02:00,54.7,33.2,30.40,SW,225,4.7,-999.0,44,-99.99,,,0.01,Acu-Link.com,2013-04-26 19:02:00,
2013-04-26 15:18:00,55.0,33.5,30.40,NW,315,3.7,-999.0,44,-99.99,,,0.01,Acu-Link.com,2013-04-26 19:18:00,
2013-04-26 15:33:00,54.0,32.0,30.40,West,270,5.3,-999.0,43,-99.99,,,0.01,Acu-Link.com,2013-04-26 19:33:00,
2013-04-26 15:48:00,54.3,32.3,30.39,SW,225,3.2,-999.0,43,-99.99,,,0.01,Acu-Link.com,2013-04-26 19:48:00,
2013-04-26 16:03:00,55.0,32.3,30.39,SSW,202,4.2,-999.0,42,-99.99,,,0.01,Acu-Link.com,2013-04-26 20:03:00,
2013-04-26 16:18:00,55.9,31.9,30.38,SSW,202,5.8,-999.0,40,-99.99,,,0.01,Acu-Link.com,2013-04-26 20:18:00,
2013-04-26 16:33:00,54.9,33.4,30.38,WSW,247,4.7,-999.0,44,-99.99,,,0.01,Acu-Link.com,2013-04-26 20:33:00,
2013-04-26 16:48:00,56.5,33.7,30.36,SSW,202,4.2,-999.0,42,-99.99,,,0.01,Acu-Link.com,2013-04-26 20:48:00,
2013-04-26 17:03:00,54.5,31.3,30.36,SW,225,3.7,-999.0,41,-99.99,,,0.01,Acu-Link.com,2013-04-26 21:03:00,
2013-04-26 17:19:00,54.7,30.9,30.36,SW,225,4.7,-999.0,40,-99.99,,,0.01,Acu-Link.com,2013-04-26 21:19:00,
2013-04-26 17:34:00,55.2,29.4,30.36,WSW,247,3.7,-999.0,37,-99.99,,,0.01,Acu-Link.com,2013-04-26 21:34:00,
2013-04-26 17:49:00,55.0,30.5,30.36,West,270,3.7,-999.0,39,-99.99,,,0.01,Acu-Link.com,2013-04-26 21:49:00,
2013-04-26 18:04:00,56.1,30.8,30.35,ESE,112,2.7,-999.0,38,-99.99,,,0.01,Acu-Link.com,2013-04-26 22:04:00,
2013-04-26 18:19:00,55.4,29.6,30.35,SW,225,1.7,-999.0,37,-99.99,,,0.01,Acu-Link.com,2013-04-26 22:19:00,
2013-04-26 18:35:00,54.9,27.1,30.35,West,270,0.0,-999.0,34,-99.99,,,0.01,Acu-Link.com,2013-04-26 22:35:00,
2013-04-26 18:50:00,55.8,27.1,30.35,SSW,202,2.7,-999.0,33,-99.99,,,0.01,Acu-Link.com,2013-04-26 22:50:00,
2013-04-26 19:05:00,55.2,22.7,30.34,NNW,337,1.7,-999.0,28,-99.99,,,0.01,Acu-Link.com,2013-04-26 23:05:00,
2013-04-26 19:20:00,55.0,23.3,30.34,SW,225,0.0,-999.0,29,-99.99,,,0.01,Acu-Link.com,2013-04-26 23:20:00,
2013-04-26 19:35:00,53.2,20.1,30.35,SW,225,1.7,-999.0,27,-99.99,,,0.01,Acu-Link.com,2013-04-26 23:35:00,
2013-04-26 19:51:00,51.6,20.4,30.35,SW,225,1.7,-999.0,29,-99.99,,,0.01,Acu-Link.com,2013-04-26 23:51:00,
2013-04-26 20:06:00,50.4,23.1,30.35,WNW,292,1.7,-999.0,34,-99.99,,,0.01,Acu-Link.com,2013-04-27 00:06:00,
2013-04-26 20:21:00,48.7,23.0,30.35,WSW,247,0.0,-999.0,36,-99.99,,,0.01,Acu-Link.com,2013-04-27 00:21:00,
2013-04-26 20:37:00,46.8,23.8,30.35,WSW,247,0.0,-999.0,40,-99.99,,,0.01,Acu-Link.com,2013-04-27 00:37:00,
2013-04-26 20:52:00,45.5,27.0,30.35,SSW,202,0.0,-999.0,48,-99.99,,,0.01,Acu-Link.com,2013-04-27 00:52:00,
2013-04-26 21:07:00,44.2,26.3,30.36,SSW,202,0.0,-999.0,49,-99.99,,,0.01,Acu-Link.com,2013-04-27 01:07:00,
2013-04-26 21:23:00,43.5,27.5,30.36,WNW,292,1.1,-999.0,53,-99.99,,,0.01,Acu-Link.com,2013-04-27 01:23:00,
2013-04-26 21:38:00,42.6,28.0,30.36,WNW,292,0.0,-999.0,56,-99.99,,,0.01,Acu-Link.com,2013-04-27 01:38:00,
2013-04-26 21:53:00,41.7,30.8,30.35,South,180,0.0,-999.0,65,-99.99,,,0.01,Acu-Link.com,2013-04-27 01:53:00,
2013-04-26 22:08:00,40.6,28.6,30.35,South,180,0.0,-999.0,62,-99.99,,,0.01,Acu-Link.com,2013-04-27 02:08:00,
2013-04-26 22:24:00,39.7,28.9,30.34,South,180,0.0,-999.0,65,-99.99,,,0.01,Acu-Link.com,2013-04-27 02:24:00,
2013-04-26 22:39:00,39.2,29.2,30.34,NE,45,0.0,-999.0,67,-99.99,,,0.01,Acu-Link.com,2013-04-27 02:39:00,
2013-04-26 22:54:00,39.2,28.8,30.34,NE,45,0.0,-999.0,66,-99.99,,,0.01,Acu-Link.com,2013-04-27 02:54:00,
2013-04-26 23:10:00,38.8,29.9,30.35,North,0,0.0,-999.0,70,-99.99,,,0.01,Acu-Link.com,2013-04-27 03:10:00,
2013-04-26 23:25:00,38.3,29.0,30.35,North,0,0.0,-999.0,69,-99.99,,,0.01,Acu-Link.com,2013-04-27 03:25:00,
2013-04-26 23:40:00,37.6,29.7,30.36,North,0,0.0,-999.0,73,-99.99,,,0.01,Acu-Link.com,2013-04-27 03:40:00,
2013-04-26 23:56:00,37.4,30.5,30.35,ESE,112,0.0,-999.0,76,-99.99,,,0.01,Acu-Link.com,2013-04-27 03:56:00,